Station History

Weather Underground - logo

Station Historical Data
Daily Summary for August 10, 2017 Units:  English    Metric   Both
« Previous Day
Next Day »
Daily Weekly Monthly Yearly Custom
  High: Low: Average:
Temperature: 97.4 °F 64.8 °F 82.1 °F
Dew Point: 69.7 °F 58.7 °F 64.3 °F
Humidity: 90 % 28 % 59 %
Wind Speed: 5.8 mph 0.0 mph 1.4 mph
Wind Gust: 5.8 mph - -
Wind:- - WSW
Pressure: 29.87 in 29.75 in -
Precipitation: 0.00 in    
Historical Graphs
 
 
Tabular Data for August 10, 2017
Time Temperature Dew Point Pressure Wind Wind Speed Wind Gust Humidity Rainfall Rate (Hourly)
00:03 78.0 °F 64.8 °F 29.80 in Calm     64 % 0.00 in
00:08 77.4 °F 64.7 °F 29.80 in Calm     65 % 0.00 in
00:13 76.8 °F 63.7 °F 29.80 in Calm     64 % 0.00 in
00:18 76.8 °F 63.7 °F 29.80 in Calm     64 % 0.00 in
00:23 76.7 °F 64.0 °F 29.80 in Calm     65 % 0.00 in
00:28 76.5 °F 63.9 °F 29.80 in Calm     65 % 0.00 in
00:33 76.3 °F 64.1 °F 29.80 in Calm     66 % 0.00 in
00:38 75.9 °F 64.2 °F 29.80 in Calm     67 % 0.00 in
00:41 75.7 °F 63.5 °F 29.80 in Calm     66 % 0.00 in
00:46 76.0 °F 64.2 °F 29.80 in Calm     67 % 0.00 in
00:51 75.8 °F 63.6 °F 29.80 in Calm     66 % 0.00 in
00:56 75.8 °F 64.1 °F 29.80 in Calm     67 % 0.00 in
01:01 75.8 °F 64.1 °F 29.80 in Calm     67 % 0.00 in
01:06 75.6 °F 64.3 °F 29.80 in Calm     68 % 0.00 in
01:11 75.9 °F 63.7 °F 29.80 in Calm     66 % 0.00 in
01:16 75.9 °F 63.7 °F 29.80 in Calm     66 % 0.00 in
01:21 75.7 °F 63.5 °F 29.80 in Calm     66 % 0.00 in
01:26 75.2 °F 63.5 °F 29.80 in Calm     67 % 0.00 in
01:32 74.8 °F 63.9 °F 29.80 in Calm     69 % 0.00 in
01:37 74.3 °F 63.9 °F 29.80 in Calm     70 % 0.00 in
01:42 74.3 °F 63.9 °F 29.80 in Calm     70 % 0.00 in
01:47 74.4 °F 64.0 °F 29.80 in Calm     70 % 0.00 in
01:52 74.4 °F 64.4 °F 29.80 in Calm     71 % 0.00 in
01:57 74.3 °F 63.9 °F 29.80 in Calm     70 % 0.00 in
02:02 74.0 °F 64.0 °F 29.80 in Calm     71 % 0.00 in
02:07 73.6 °F 64.0 °F 29.80 in Calm     72 % 0.00 in
02:12 73.2 °F 64.0 °F 29.80 in Calm     73 % 0.00 in
02:17 72.9 °F 63.7 °F 29.80 in Calm     73 % 0.00 in
02:22 72.6 °F 63.8 °F 29.80 in Calm     74 % 0.00 in
02:27 72.3 °F 63.5 °F 29.80 in Calm     74 % 0.00 in
02:32 72.0 °F 63.6 °F 29.80 in Calm     75 % 0.00 in
02:37 71.8 °F 63.8 °F 29.80 in Calm     76 % 0.00 in
02:42 71.6 °F 64.0 °F 29.80 in Calm     77 % 0.00 in
02:47 71.3 °F 63.7 °F 29.80 in Calm     77 % 0.00 in
02:52 71.0 °F 63.4 °F 29.80 in Calm     77 % 0.00 in
02:57 70.9 °F 63.7 °F 29.80 in Calm     78 % 0.00 in
03:02 70.7 °F 63.5 °F 29.80 in Calm     78 % 0.00 in
03:07 70.8 °F 64.0 °F 29.80 in Calm     79 % 0.00 in
03:12 70.8 °F 64.0 °F 29.80 in Calm     79 % 0.00 in
03:17 70.7 °F 63.9 °F 29.81 in Calm     79 % 0.00 in
03:22 70.3 °F 63.8 °F 29.81 in Calm     80 % 0.00 in
03:27 69.8 °F 63.3 °F 29.81 in Calm     80 % 0.00 in
03:32 69.5 °F 63.4 °F 29.81 in Calm     81 % 0.00 in
03:37 69.2 °F 63.1 °F 29.81 in Calm     81 % 0.00 in
03:38 69.1 °F 63.0 °F 29.81 in Calm     81 % 0.00 in
03:43 68.7 °F 62.6 °F 29.81 in Calm     81 % 0.00 in
03:48 68.5 °F 62.8 °F 29.81 in Calm     82 % 0.00 in
03:53 68.3 °F 62.9 °F 29.80 in Calm     83 % 0.00 in
03:58 68.3 °F 62.9 °F 29.81 in Calm     83 % 0.00 in
04:03 68.3 °F 62.9 °F 29.81 in Calm     83 % 0.00 in
04:08 68.2 °F 62.8 °F 29.81 in Calm     83 % 0.00 in
04:13 68.0 °F 63.0 °F 29.81 in Calm     84 % 0.00 in
04:18 67.9 °F 62.9 °F 29.81 in Calm     84 % 0.00 in
04:23 67.8 °F 62.8 °F 29.81 in Calm     84 % 0.00 in
04:28 67.6 °F 62.9 °F 29.81 in Calm     85 % 0.00 in
04:33 67.5 °F 62.8 °F 29.81 in Calm     85 % 0.00 in
04:38 67.3 °F 63.0 °F 29.81 in Calm     86 % 0.00 in
04:43 67.3 °F 63.0 °F 29.81 in Calm     86 % 0.00 in
04:48 67.3 °F 63.0 °F 29.81 in Calm     86 % 0.00 in
04:53 67.1 °F 62.8 °F 29.82 in Calm     86 % 0.00 in
04:58 67.0 °F 62.7 °F 29.82 in Calm     86 % 0.00 in
05:03 66.8 °F 62.5 °F 29.82 in Calm     86 % 0.00 in
05:08 66.7 °F 62.7 °F 29.82 in Calm     87 % 0.00 in
05:13 66.5 °F 62.5 °F 29.82 in Calm     87 % 0.00 in
05:18 66.5 °F 62.5 °F 29.82 in Calm     87 % 0.00 in
05:23 66.4 °F 62.4 °F 29.82 in Calm     87 % 0.00 in
05:28 66.3 °F 62.3 °F 29.82 in Calm     87 % 0.00 in
05:33 66.2 °F 62.2 °F 29.82 in Calm     87 % 0.00 in
05:38 66.1 °F 62.1 °F 29.83 in Calm     87 % 0.00 in
05:43 65.9 °F 61.9 °F 29.83 in Calm     87 % 0.00 in
05:48 65.8 °F 61.8 °F 29.83 in Calm     87 % 0.00 in
05:53 65.6 °F 61.6 °F 29.83 in Calm     87 % 0.00 in
05:58 65.5 °F 61.5 °F 29.83 in Calm     87 % 0.00 in
06:03 65.2 °F 61.2 °F 29.84 in Calm     87 % 0.00 in
06:08 65.0 °F 61.4 °F 29.84 in Calm     88 % 0.00 in
06:13 64.9 °F 61.6 °F 29.84 in Calm     89 % 0.00 in
06:18 64.8 °F 61.5 °F 29.84 in Calm     89 % 0.00 in
06:23 64.8 °F 61.8 °F 29.84 in Calm     90 % 0.00 in
06:28 64.8 °F 61.5 °F 29.84 in Calm     89 % 0.00 in
06:33 64.8 °F 61.5 °F 29.84 in Calm     89 % 0.00 in
06:38 64.9 °F 61.6 °F 29.85 in Calm     89 % 0.00 in
06:43 65.1 °F 62.1 °F 29.85 in Calm     90 % 0.00 in
06:49 65.2 °F 61.9 °F 29.85 in Calm     89 % 0.00 in
06:54 65.4 °F 62.1 °F 29.85 in Calm     89 % 0.00 in
06:59 65.6 °F 62.3 °F 29.85 in Calm     89 % 0.00 in
07:00 65.6 °F 62.3 °F 29.85 in Calm     89 % 0.00 in
07:05 66.0 °F 62.7 °F 29.85 in Calm     89 % 0.00 in
07:10 66.3 °F 63.3 °F 29.86 in Calm     90 % 0.00 in
07:11 66.4 °F 63.4 °F 29.86 in NW 1.2 mph 1.2 mph 90 % 0.00 in
07:16 66.7 °F 63.7 °F 29.86 in Calm     90 % 0.00 in
07:21 67.2 °F 63.8 °F 29.86 in Calm   0.1 mph 89 % 0.00 in
07:26 68.0 °F 64.3 °F 29.86 in NNE 2.3 mph   88 % 0.00 in
07:31 68.8 °F 64.4 °F 29.86 in East 2.3 mph 2.3 mph 86 % 0.00 in
07:36 69.5 °F 64.8 °F 29.86 in SSE 1.2 mph   85 % 0.00 in
07:41 70.2 °F 64.8 °F 29.87 in South 1.2 mph 1.2 mph 83 % 0.00 in
07:46 70.7 °F 64.9 °F 29.87 in SSE 2.3 mph 2.3 mph 82 % 0.00 in
07:51 71.1 °F 65.0 °F 29.87 in South 3.5 mph 3.5 mph 81 % 0.00 in
07:56 71.5 °F 65.4 °F 29.87 in South 2.3 mph 2.3 mph 81 % 0.00 in
08:01 71.9 °F 65.4 °F 29.87 in East 2.3 mph 2.3 mph 80 % 0.00 in
08:06 72.3 °F 65.4 °F 29.87 in East 2.3 mph 2.3 mph 79 % 0.00 in
08:11 73.1 °F 65.8 °F 29.87 in SSE 2.3 mph 2.3 mph 78 % 0.00 in
08:16 73.7 °F 66.0 °F 29.87 in East 1.2 mph 1.2 mph 77 % 0.00 in
08:21 74.4 °F 66.3 °F 29.87 in East 2.3 mph   76 % 0.00 in
08:26 74.9 °F 66.4 °F 29.87 in East 2.3 mph 2.3 mph 75 % 0.00 in
08:31 75.0 °F 66.1 °F 29.87 in East 3.5 mph 3.5 mph 74 % 0.00 in
08:36 75.2 °F 65.9 °F 29.87 in East 3.5 mph 3.5 mph 73 % 0.00 in
08:41 75.7 °F 66.0 °F 29.87 in East 3.5 mph 3.5 mph 72 % 0.00 in
08:46 76.3 °F 66.6 °F 29.87 in SSE 3.0 mph 3.0 mph 72 % 0.00 in
08:51 77.0 °F 67.3 °F 29.87 in South 1.2 mph 1.2 mph 72 % 0.00 in
08:56 77.7 °F 67.1 °F 29.87 in ESE 2.3 mph 2.3 mph 70 % 0.00 in
09:01 78.4 °F 67.4 °F 29.87 in SSE 4.0 mph 4.0 mph 69 % 0.00 in
09:06 78.6 °F 67.2 °F 29.87 in ESE 3.5 mph 3.5 mph 68 % 0.00 in
09:11 79.0 °F 67.5 °F 29.87 in SE 2.0 mph 2.0 mph 68 % 0.00 in
09:16 79.5 °F 67.1 °F 29.87 in SE 3.5 mph 3.5 mph 66 % 0.00 in
09:21 79.7 °F 66.9 °F 29.87 in SSE 2.3 mph 2.3 mph 65 % 0.00 in
09:26 80.2 °F 66.9 °F 29.87 in SSE 3.5 mph 3.5 mph 64 % 0.00 in
09:31 80.4 °F 67.1 °F 29.87 in SSE 3.0 mph 3.0 mph 64 % 0.00 in
09:33 80.6 °F 66.8 °F 29.87 in SSW 4.0 mph 4.0 mph 63 % 0.00 in
09:38 80.9 °F 67.1 °F 29.87 in SE 3.0 mph 3.0 mph 63 % 0.00 in
09:43 81.2 °F 67.4 °F 29.87 in SW 3.5 mph 3.5 mph 63 % 0.00 in
09:48 81.7 °F 67.9 °F 29.87 in South 2.3 mph 2.3 mph 63 % 0.00 in
09:53 82.0 °F 67.7 °F 29.87 in SSE 3.5 mph 3.5 mph 62 % 0.00 in
09:58 82.2 °F 67.9 °F 29.87 in SSE 3.5 mph 3.5 mph 62 % 0.00 in
10:03 82.7 °F 68.4 °F 29.87 in ESE 3.5 mph 3.5 mph 62 % 0.00 in
10:13 83.2 °F 68.8 °F 29.87 in West 1.2 mph 1.2 mph 62 % 0.00 in
10:18 83.9 °F 69.0 °F 29.87 in SSW 1.2 mph   61 % 0.00 in
10:23 84.2 °F 68.3 °F 29.87 in NE 3.5 mph 3.5 mph 59 % 0.00 in
10:28 84.2 °F 68.3 °F 29.87 in NW 4.6 mph 4.6 mph 59 % 0.00 in
10:33 84.3 °F 69.4 °F 29.87 in Calm     61 % 0.00 in
10:38 85.0 °F 68.6 °F 29.87 in SSE 3.5 mph 3.5 mph 58 % 0.00 in
10:43 85.2 °F 68.8 °F 29.87 in NW 2.3 mph 2.3 mph 58 % 0.00 in
10:48 85.2 °F 68.8 °F 29.87 in WNW 2.3 mph 2.3 mph 58 % 0.00 in
10:53 85.2 °F 68.8 °F 29.87 in West 2.3 mph 2.3 mph 58 % 0.00 in
10:58 85.3 °F 68.8 °F 29.87 in West 1.0 mph 1.1 mph 58 % 0.00 in
11:03 85.7 °F 68.7 °F 29.86 in NNW 2.3 mph 2.3 mph 57 % 0.00 in
11:08 85.7 °F 68.2 °F 29.86 in NW 2.3 mph 2.3 mph 56 % 0.00 in
11:13 86.3 °F 68.8 °F 29.86 in NNW 2.3 mph 2.3 mph 56 % 0.00 in
11:18 86.6 °F 68.5 °F 29.86 in NNW 2.3 mph   55 % 0.00 in
11:23 86.9 °F 68.8 °F 29.86 in North 2.3 mph 2.3 mph 55 % 0.00 in
11:28 87.6 °F 68.4 °F 29.86 in NNE 2.3 mph 2.3 mph 53 % 0.00 in
11:33 87.6 °F 68.9 °F 29.86 in NNE 2.3 mph 2.3 mph 54 % 0.00 in
11:38 88.0 °F 67.6 °F 29.86 in SE 1.2 mph 1.2 mph 51 % 0.00 in
11:43 88.0 °F 68.7 °F 29.86 in SSW 2.3 mph 2.3 mph 53 % 0.00 in
11:48 88.5 °F 69.7 °F 29.86 in NNW 2.0 mph 2.0 mph 54 % 0.00 in
11:53 88.6 °F 69.3 °F 29.86 in SW 1.2 mph 1.2 mph 53 % 0.00 in
11:58 89.0 °F 67.4 °F 29.86 in NW 2.3 mph 2.3 mph 49 % 0.00 in
12:03 89.2 °F 68.1 °F 29.86 in NNE 2.3 mph 2.3 mph 50 % 0.00 in
12:08 89.5 °F 69.0 °F 29.86 in South 2.3 mph 2.3 mph 51 % 0.00 in
12:13 90.0 °F 68.9 °F 29.85 in SSE 3.5 mph 3.5 mph 50 % 0.00 in
12:18 90.4 °F 69.2 °F 29.85 in SE 3.5 mph 3.5 mph 50 % 0.00 in
12:23 90.3 °F 66.7 °F 29.85 in NNW 2.3 mph 2.3 mph 46 % 0.00 in
12:28 90.4 °F 68.0 °F 29.85 in SSE 3.5 mph 3.5 mph 48 % 0.00 in
12:33 91.0 °F 69.2 °F 29.85 in SSE 2.3 mph 2.3 mph 49 % 0.00 in
12:38 90.8 °F 67.8 °F 29.85 in WSW 3.5 mph 3.5 mph 47 % 0.00 in
12:43 90.7 °F 68.3 °F 29.85 in SSE 2.3 mph 2.3 mph 48 % 0.00 in
12:49 91.6 °F 68.5 °F 29.84 in NNW 2.3 mph 2.3 mph 47 % 0.00 in
12:50 91.5 °F 67.8 °F 29.84 in NW 3.5 mph 3.5 mph 46 % 0.00 in
12:55 91.4 °F 67.1 °F 29.84 in NNW 2.3 mph 2.3 mph 45 % 0.00 in
13:00 91.7 °F 67.3 °F 29.84 in WNW 2.0 mph 2.0 mph 45 % 0.00 in
13:05 92.1 °F 68.3 °F 29.84 in NW 3.5 mph 3.5 mph 46 % 0.00 in
13:10 92.2 °F 65.8 °F 29.84 in WNW 2.0 mph 2.0 mph 42 % 0.00 in
13:15 92.5 °F 66.7 °F 29.84 in North 2.3 mph 2.3 mph 43 % 0.00 in
13:20 92.7 °F 64.8 °F 29.84 in East 3.5 mph 3.5 mph 40 % 0.00 in
13:25 93.6 °F 67.1 °F 29.84 in WNW 2.0 mph 2.0 mph 42 % 0.00 in
13:30 93.5 °F 65.6 °F 29.84 in West 2.3 mph 2.3 mph 40 % 0.00 in
13:35 93.4 °F 64.0 °F 29.84 in WNW 3.5 mph 3.5 mph 38 % 0.00 in
13:40 93.6 °F 64.9 °F 29.83 in ESE 4.0 mph 4.0 mph 39 % 0.00 in
13:46 94.3 °F 66.3 °F 29.83 in WNW 2.3 mph 2.3 mph 40 % 0.00 in
13:51 94.5 °F 65.0 °F 29.83 in South 3.5 mph 3.5 mph 38 % 0.00 in
13:56 95.0 °F 65.4 °F 29.83 in ENE 2.3 mph 2.3 mph 38 % 0.00 in
14:01 95.2 °F 64.8 °F 29.83 in East 2.3 mph 2.3 mph 37 % 0.00 in
14:06 95.0 °F 64.6 °F 29.83 in WNW 3.5 mph 3.5 mph 37 % 0.00 in
14:11 95.4 °F 66.5 °F 29.83 in SE 1.2 mph 1.2 mph 39 % 0.00 in
14:16 95.8 °F 66.1 °F 29.82 in WSW 3.5 mph 3.5 mph 38 % 0.00 in
14:21 96.2 °F 65.7 °F 29.82 in WSW 2.3 mph 2.3 mph 37 % 0.00 in
14:26 96.2 °F 65.7 °F 29.82 in Calm     37 % 0.00 in
14:28 96.4 °F 65.1 °F 29.82 in North 3.5 mph 3.5 mph 36 % 0.00 in
14:33 97.0 °F 65.6 °F 29.82 in NW 2.3 mph 2.3 mph 36 % 0.00 in
14:38 97.0 °F 64.8 °F 29.81 in NW 2.3 mph 2.3 mph 35 % 0.00 in
14:43 97.1 °F 64.9 °F 29.81 in WNW 1.2 mph 1.2 mph 35 % 0.00 in
14:48 97.1 °F 66.5 °F 29.81 in North 1.2 mph 1.2 mph 37 % 0.00 in
14:53 97.3 °F 65.1 °F 29.81 in WNW 2.0 mph 2.0 mph 35 % 0.00 in
14:58 96.6 °F 64.5 °F 29.80 in WNW 3.5 mph 3.5 mph 35 % 0.00 in
15:03 96.4 °F 64.3 °F 29.80 in West 3.5 mph 3.5 mph 35 % 0.00 in
15:08 96.9 °F 65.5 °F 29.80 in North 2.3 mph 2.3 mph 36 % 0.00 in
15:13 97.2 °F 65.0 °F 29.80 in NW 3.0 mph 3.0 mph 35 % 0.00 in
15:18 97.0 °F 62.3 °F 29.80 in WNW 2.3 mph 2.3 mph 32 % 0.00 in
15:23 97.1 °F 63.2 °F 29.80 in NNW 4.0 mph 4.0 mph 33 % 0.00 in
15:28 96.8 °F 62.1 °F 29.80 in NW 3.5 mph 3.5 mph 32 % 0.00 in
15:33 96.5 °F 62.7 °F 29.79 in West 3.5 mph 3.5 mph 33 % 0.00 in
15:38 96.6 °F 62.8 °F 29.79 in West 3.5 mph 3.5 mph 33 % 0.00 in
15:44 96.6 °F 61.0 °F 29.79 in NW 3.5 mph 3.5 mph 31 % 0.00 in
15:49 96.6 °F 61.0 °F 29.79 in NW 4.0 mph 4.0 mph 31 % 0.00 in
15:54 96.8 °F 61.2 °F 29.79 in NW 5.8 mph 5.8 mph 31 % 0.00 in
15:59 96.9 °F 60.3 °F 29.79 in NW 3.5 mph 3.5 mph 30 % 0.00 in
16:04 97.0 °F 61.4 °F 29.78 in WNW 3.5 mph 3.5 mph 31 % 0.00 in
16:09 97.3 °F 61.6 °F 29.79 in NW 3.5 mph 3.5 mph 31 % 0.00 in
16:14 97.4 °F 60.8 °F 29.78 in NW 3.5 mph 3.5 mph 30 % 0.00 in
16:19 97.1 °F 62.3 °F 29.78 in NNW 4.6 mph 4.6 mph 32 % 0.00 in
16:24 97.1 °F 60.5 °F 29.78 in NW 2.3 mph 2.3 mph 30 % 0.00 in
16:29 97.1 °F 59.6 °F 29.78 in NW 3.5 mph 3.5 mph 29 % 0.00 in
16:34 97.3 °F 60.7 °F 29.78 in NW 3.5 mph 3.5 mph 30 % 0.00 in
16:39 97.3 °F 60.7 °F 29.78 in NW 3.5 mph 3.5 mph 30 % 0.00 in
16:44 97.2 °F 59.6 °F 29.78 in NW 3.5 mph 3.5 mph 29 % 0.00 in
16:49 97.4 °F 60.8 °F 29.77 in NW 3.5 mph 3.5 mph 30 % 0.00 in
16:54 97.3 °F 58.7 °F 29.77 in NW 3.5 mph 3.5 mph 28 % 0.00 in
16:59 97.3 °F 59.7 °F 29.77 in NW 5.0 mph 5.0 mph 29 % 0.00 in
17:04 97.0 °F 60.4 °F 29.77 in North 4.0 mph 4.0 mph 30 % 0.00 in
17:09 96.8 °F 60.3 °F 29.77 in NW 3.5 mph 3.5 mph 30 % 0.00 in
17:14 96.7 °F 60.2 °F 29.77 in WNW 3.5 mph 3.5 mph 30 % 0.00 in
17:15 96.7 °F 60.2 °F 29.77 in NW 3.5 mph 3.5 mph 30 % 0.00 in
17:20 96.6 °F 59.1 °F 29.77 in NNW 4.6 mph 4.6 mph 29 % 0.00 in
17:25 96.7 °F 60.2 °F 29.77 in NW 3.5 mph 3.5 mph 30 % 0.00 in
17:30 97.0 °F 62.3 °F 29.76 in NW 2.3 mph 2.3 mph 32 % 0.00 in
17:35 96.9 °F 61.3 °F 29.76 in NW 2.3 mph 2.3 mph 31 % 0.00 in
17:40 97.1 °F 61.4 °F 29.76 in NW 2.3 mph 2.3 mph 31 % 0.00 in
17:45 97.2 °F 61.5 °F 29.76 in NW 2.3 mph 2.3 mph 31 % 0.00 in
17:50 97.0 °F 61.4 °F 29.76 in NNE 2.3 mph 2.3 mph 31 % 0.00 in
17:55 96.9 °F 60.3 °F 29.76 in WNW 3.5 mph 3.5 mph 30 % 0.00 in
18:00 96.7 °F 61.1 °F 29.76 in NW 3.5 mph 3.5 mph 31 % 0.00 in
18:05 96.6 °F 60.1 °F 29.76 in WNW 4.6 mph 4.6 mph 30 % 0.00 in
18:10 96.4 °F 60.8 °F 29.76 in NNW 2.3 mph 2.3 mph 31 % 0.00 in
18:15 96.2 °F 60.7 °F 29.76 in WNW 3.5 mph 3.5 mph 31 % 0.00 in
18:20 96.1 °F 61.5 °F 29.76 in WNW 1.2 mph 1.2 mph 32 % 0.00 in
18:25 96.2 °F 61.6 °F 29.76 in WNW 1.2 mph 1.2 mph 32 % 0.00 in
18:30 96.0 °F 60.5 °F 29.76 in NW 2.3 mph 2.3 mph 31 % 0.00 in
18:35 96.1 °F 63.2 °F 29.76 in NW 2.0 mph 2.0 mph 34 % 0.00 in
18:40 96.0 °F 61.4 °F 29.76 in NW 1.2 mph 1.2 mph 32 % 0.00 in
18:45 95.6 °F 61.0 °F 29.76 in NW 2.3 mph 2.3 mph 32 % 0.00 in
18:50 94.8 °F 62.1 °F 29.76 in NNW 2.3 mph   34 % 0.00 in
18:55 94.2 °F 61.5 °F 29.76 in NW 1.2 mph 1.2 mph 34 % 0.00 in
19:00 93.7 °F 61.9 °F 29.76 in NW 1.2 mph   35 % 0.00 in
19:05 93.3 °F 60.7 °F 29.76 in NW 1.2 mph 1.2 mph 34 % 0.00 in
19:10 92.9 °F 62.8 °F 29.76 in WNW 1.0 mph 1.0 mph 37 % 0.00 in
19:15 92.3 °F 62.3 °F 29.76 in Calm     37 % 0.00 in
19:20 91.8 °F 62.6 °F 29.76 in WNW 1.2 mph 1.2 mph 38 % 0.00 in
19:25 91.5 °F 62.3 °F 29.75 in WNW 1.2 mph 1.2 mph 38 % 0.00 in
19:30 91.1 °F 62.7 °F 29.75 in WNW 1.2 mph   39 % 0.00 in
19:35 90.8 °F 62.4 °F 29.76 in WNW 1.2 mph 1.2 mph 39 % 0.00 in
19:40 90.5 °F 62.2 °F 29.76 in WNW 1.2 mph   39 % 0.00 in
19:45 90.3 °F 62.0 °F 29.76 in Calm     39 % 0.00 in
19:50 90.0 °F 62.4 °F 29.76 in WNW 1.2 mph 1.2 mph 40 % 0.00 in
19:55 89.8 °F 62.3 °F 29.76 in Calm     40 % 0.00 in
20:00 89.3 °F 62.5 °F 29.76 in Calm     41 % 0.00 in
20:05 88.9 °F 63.5 °F 29.76 in Calm     43 % 0.00 in
20:10 88.2 °F 64.2 °F 29.76 in Calm     45 % 0.00 in
20:15 87.5 °F 63.5 °F 29.76 in Calm     45 % 0.00 in
20:20 86.7 °F 63.4 °F 29.76 in Calm     46 % 0.00 in
20:21 86.6 °F 63.4 °F 29.76 in Calm     46 % 0.00 in
20:22 86.6 °F 63.4 °F 29.76 in Calm     46 % 0.00 in
20:27 86.2 °F 63.0 °F 29.76 in Calm     46 % 0.00 in
20:32 85.7 °F 62.5 °F 29.76 in Calm     46 % 0.00 in
20:37 85.2 °F 63.3 °F 29.76 in Calm     48 % 0.00 in
20:42 84.8 °F 64.7 °F 29.76 in Calm     51 % 0.00 in
20:47 84.4 °F 65.4 °F 29.76 in Calm     53 % 0.00 in
20:52 83.9 °F 64.4 °F 29.76 in Calm     52 % 0.00 in
20:57 83.6 °F 66.2 °F 29.77 in Calm     56 % 0.00 in
21:02 83.2 °F 66.4 °F 29.77 in Calm     57 % 0.00 in
21:07 82.7 °F 65.4 °F 29.77 in Calm     56 % 0.00 in
21:12 82.5 °F 64.7 °F 29.77 in Calm     55 % 0.00 in
21:17 82.2 °F 65.4 °F 29.77 in Calm   0.1 mph 57 % 0.00 in
21:22 82.0 °F 65.3 °F 29.77 in Calm     57 % 0.00 in
21:27 81.7 °F 65.0 °F 29.78 in Calm     57 % 0.00 in
21:32 81.5 °F 65.8 °F 29.78 in WNW 1.2 mph   59 % 0.00 in
21:37 81.4 °F 65.2 °F 29.78 in Calm     58 % 0.00 in
21:42 81.2 °F 65.5 °F 29.78 in Calm     59 % 0.00 in
21:47 80.9 °F 65.2 °F 29.79 in Calm     59 % 0.00 in
21:52 80.7 °F 65.5 °F 29.79 in Calm     60 % 0.00 in
21:54 80.5 °F 64.9 °F 29.79 in Calm     59 % 0.00 in
21:59 80.3 °F 64.7 °F 29.79 in Calm     59 % 0.00 in
22:04 80.2 °F 64.6 °F 29.79 in Calm     59 % 0.00 in
22:09 79.9 °F 65.2 °F 29.79 in Calm     61 % 0.00 in
22:14 79.6 °F 65.0 °F 29.79 in Calm     61 % 0.00 in
22:19 79.5 °F 65.3 °F 29.79 in Calm     62 % 0.00 in
22:24 79.5 °F 64.4 °F 29.79 in Calm     60 % 0.00 in
22:29 79.5 °F 64.4 °F 29.79 in Calm     60 % 0.00 in
22:34 79.7 °F 64.6 °F 29.80 in Calm     60 % 0.00 in
22:39 79.7 °F 65.5 °F 29.80 in Calm     62 % 0.00 in
22:44 79.4 °F 65.7 °F 29.80 in Calm     63 % 0.00 in
22:49 79.3 °F 65.6 °F 29.80 in Calm     63 % 0.00 in
22:54 79.4 °F 65.2 °F 29.80 in Calm     62 % 0.00 in
22:59 79.2 °F 65.5 °F 29.80 in Calm     63 % 0.00 in
23:04 78.9 °F 65.2 °F 29.80 in Calm     63 % 0.00 in
23:09 78.7 °F 65.5 °F 29.80 in Calm     64 % 0.00 in
23:14 78.3 °F 65.1 °F 29.80 in Calm     64 % 0.00 in
23:19 78.1 °F 64.5 °F 29.80 in WNW 1.2 mph   63 % 0.00 in
23:24 78.1 °F 64.5 °F 29.80 in WNW 1.0 mph   63 % 0.00 in
23:29 78.5 °F 65.3 °F 29.80 in WNW 1.2 mph   64 % 0.00 in
23:35 78.4 °F 65.2 °F 29.80 in Calm     64 % 0.00 in
23:40 78.3 °F 65.1 °F 29.80 in Calm     64 % 0.00 in
23:45 78.1 °F 64.9 °F 29.79 in NW 1.2 mph 1.2 mph 64 % 0.00 in
23:50 77.9 °F 64.7 °F 29.80 in NW 1.2 mph 1.2 mph 64 % 0.00 in
23:55 77.8 °F 64.6 °F 29.80 in West 1.2 mph 1.2 mph 64 % 0.00 in
Park Place, Exeter, Tulare County, California, USA
Compliments of Weather Underground - 2.75 mb